Location: Peterborough
(44.3091°N, 78.3197°W)
Time: 16:29:02
(UTC-04:00)

Transit 4A - Pass Details

Date: 26 March 2023
Orbit: 864 x 980 km, 66.8° (Epoch: 04 June)

Event Time Altitude Azimuth Distance (km) Brightness Sun altitude
Rises 16:10:37 0° 327° (NNW) 3,564 10.9 33.5°
Reaches altitude 10° 16:13:07 10° 326° (NNW) 2,636 10.4 33.2°
Maximum altitude 16:19:16 81° 240° (WSW) 964 8.8 32.2°
Drops below altitude 10° 16:25:34 10° 155° (SSE) 2,694 10.5 31.3°
Sets 16:28:08 0° 154° (SSE) 3,648 11.1 30.9°
